Regional Weather Roundup
Issued by NWS Charleston, WV

Home | Current Version | Previous Version | Text Only | Print | Product List | Glossary On
Versions: 1 2 3 4 5 6 7 8 9 10 11 12 13 14 15 16 17 18 19 20 21 22 23 24 25 26 27
000
ASUS41 KRLX 241210
RWRRLX
West Virginia Regional Weather Roundup
National Weather Service Charleston WV
800 AM EDT WED MAY 24 2017

Note: "fair" indicates few or no clouds below 12,000 feet with no
significant weather and/or obstructions to visibility.

WVZ003-241300-
Northern Panhandle of West Virginia

CITY           SKY/WX    TMP DP  RH WIND       PRES   REMARKS
WHEELING       CLOUDY    59  53  80 E13       29.63F
$$

WVZ009-241300-
Northwest West Virginia

CITY           SKY/WX    TMP DP  RH WIND       PRES   REMARKS
PARKERSBURG    LGT RAIN  59  57  93 E6        29.62F FOG
$$

WVZ006-241300-
Western West Virginia

CITY           SKY/WX    TMP DP  RH WIND       PRES   REMARKS
HUNTINGTON     CLOUDY    61  59  93 SE5       29.57S
$$

WVZ015-241300-
West Central West Virginia

CITY           SKY/WX    TMP DP  RH WIND       PRES   REMARKS
CHARLESTON     CLOUDY    59  57  93 CALM      29.59S FOG
$$

WVZ022-031-241300-
North Central West Virginia

CITY           SKY/WX    TMP DP  RH WIND       PRES   REMARKS
CLARKSBURG     CLOUDY    58  55  90 E5        29.63S
MORGANTOWN     CLOUDY    59  52  77 SE8       29.65F
$$

WVZ025-035-042-045-241300-
Southern West Virginia

CITY           SKY/WX    TMP DP  RH WIND       PRES   REMARKS
BECKLEY        CLOUDY    56  53  90 SE10      29.66S
LOGAN          CLOUDY    61  59  94 CALM      29.60S
BLUEFIELD      CLOUDY    54  52  93 VRB7      29.68S
LEWISBURG      CLOUDY    55  53  94 S5        29.69R
$$

WVZ047-241300-
Northern Mountains of West Virginia

CITY           SKY/WX    TMP DP  RH WIND       PRES   REMARKS
ELKINS         CLOUDY    59  52  77 SE6       29.66F
$$

WVZ052-241300-
Eastern Panhandle of West Virginia

CITY           SKY/WX    TMP DP  RH WIND       PRES   REMARKS
MARTINSBURG    CLOUDY    58  55  90 E3        29.74S FOG
PETERSBURG     CLOUDY    59  57  96 CALM      29.73R
$$




USA.gov is the U.S. government's official web portal to all federal, state and local government web resources and services.